Regional Weather Roundup
Issued by NWS

Home | Current Version | Previous Version | Graphics & Text | Print | Product List | Glossary On
Versions: 1 2 3 4 5 6 7 8 9 10 11 12 13 14 15 16 17 18 19 20 21 22 23 24 25 26 27 28 29 30 31 32 33 34 35 36 37 38 39 40 41 42 43 44 45 46 47 48 49 50
000
ASUS45 KCYS 260510
RWRWY

WYOMING REGIONAL WEATHER ROUNDUP
NATIONAL WEATHER SERVICE CHEYENNE WY
1100 PM MDT MON MAY 25 2015

NOTE:  "FAIR" INDICATES FEW OR NO CLOUDS BELOW 12,000 FEET
WITH NO SIGNIFICANT WEATHER AND/OR OBSTRUCTIONS TO VISIBILITY.

WYZ001-260600-
YELLOWSTONE NATIONAL PARK

CITY           SKY/WX    TMP DP  RH WIND       PRES   REMARKS
LK YELLOWSTONE   N/A     37  35  92 CALM      30.09R
W YELLOWSTONE  NOT AVBL

$$
WYZ002>013-054>058-071-098>099-260600-
NORTHERN WYOMING

CITY           SKY/WX    TMP DP  RH WIND       PRES   REMARKS
JACKSON        CLOUDY    48  41  76 NW6       30.04R
CODY           CLOUDY    52  45  76 S5        29.95S
GREYBULL       FAIR      56  49  77 E9        29.92R
WORLAND        FAIR      51  48  89 S8        29.93S
SHERIDAN       FAIR      50  46  86 SE7       29.94S
BUFFALO        FAIR      49  46  90 S9        29.97F
GILLETTE       FAIR      42  41  96 S5        29.95F
HULETT         FAIR      46  45  93 S5        29.97S
NEWCASTLE      CLOUDY    54  46  76 E3        29.97R

$$
WYZ014>020-022>026-101>103-260600-
CENTRAL WYOMING

CITY           SKY/WX    TMP DP  RH WIND       PRES   REMARKS
BIG PINEY      FAIR      46  40  79 S5        30.06S
PINEDALE       MOCLDY    43  41  93 CALM      30.08S
DUBOIS         CLOUDY    43  39  87 W5        30.06S
LANDER         FAIR      49  42  77 SW5       29.98S
RIVERTON       FAIR      53  44  71 CALM      29.99F
CASPER         CLOUDY    50  45  83 CALM      30.00R
DOUGLAS        CLOUDY    50  47  89 NW6       29.99R

$$
WYZ021-027>030-104>119-260600-
SOUTHERN WYOMING

CITY           SKY/WX    TMP DP  RH WIND       PRES   REMARKS
EVANSTON       FAIR      43  39  86 S5        30.09R
KEMMERER       FAIR      41  37  87 CALM      30.09S
FORT BRIDGER   CLEAR     46  39  76 W10       30.11S
ROCK SPRINGS   FAIR      44  41  89 S6        30.06S
DIXON          FAIR      45  41  87 E5        30.10S
RAWLINS        FAIR      42  40  92 S6        30.06S
SARATOGA       MOCLDY    43  41  93 MISG      30.08S
LARAMIE        FAIR      41  38  89 N5        30.07R
CHEYENNE       FAIR      49  40  71 N10       30.03R
TORRINGTON     MOCLDY    50  49  96 N3        29.96R
PINE BLUFFS    FAIR      43  41  93 W6        30.01R

$$


USA.gov is the U.S. government's official web portal to all federal, state and local government web resources and services.